DW6794 Weather Reports


Display with metric or nautical units.
time (UTC)temp
F
wind
direction
speed
MPH
gust
MPH
rain 1hr
in
rain 24hr
in
rain mn
in
humidity
%
barometer
mb
20160505141411 49 329 2.0 5.0 0.00 0.10 0.04 80 1004.2
20160505140411 48 323 0.0 5.0 0.00 0.10 0.04 81 1004.2
20160505135411 48 309 2.0 3.0 0.00 0.10 0.04 81 1004.3
20160505133411 48 284 3.0 6.0 0.00 0.10 0.04 81 1004.2
20160505132411 47 303 0.0 6.0 0.00 0.10 0.04 82 1004.2
20160505131412 46 307 3.0 6.0 0.00 0.10 0.04 82 1004.2
20160505130411 46 5 0.0 0.0 0.00 0.10 0.04 82 1004.2
20160505125412 46 5 0.0 0.0 0.00 0.10 0.04 82 1004.1
20160505124411 46 5 0.0 1.0 0.00 0.10 0.04 82 1004.2
20160505123412 46 5 0.0 3.0 0.00 0.10 0.04 82 1004.2
20160505122412 46 5 0.0 0.0 0.00 0.10 0.04 82 1004.2
20160505121412 46 9 0.0 0.0 0.00 0.10 0.04 82 1004.1
20160505120412 46 9 0.0 6.0 0.00 0.10 0.04 82 1003.9
20160505115412 46 345 2.0 3.0 0.00 0.10 0.04 83 1003.7
20160505114412 46 248 0.0 0.0 0.00 0.10 0.04 83 1003.6
20160505113412 46 248 0.0 0.0 0.00 0.10 0.04 83 1003.6
20160505112412 46 248 0.0 0.0 0.00 0.10 0.04 83 1003.3
20160505110412 46 200 0.0 0.0 0.00 0.10 0.04 83 1003.2
20160505105412 46 205 0.0 0.0 0.00 0.10 0.04 83 1003.2
20160505104411 46 205 0.0 0.0 0.00 0.10 0.04 83 1003.1
20160505103412 46 257 0.0 0.0 0.00 0.10 0.04 83 1003.1
20160505102412 46 257 0.0 0.0 0.00 0.10 0.04 82 1003.0
20160505101412 46 257 0.0 0.0 0.00 0.10 0.04 82 1002.9
20160505100412 46 257 0.0 0.0 0.00 0.10 0.04 82 1003.0
20160505095412 46 257 0.0 0.0 0.00 0.10 0.04 82 1002.9
20160505094412 46 257 0.0 0.0 0.00 0.10 0.04 82 1002.9
20160505093412 46 257 0.0 0.0 0.00 0.10 0.04 82 1002.7
20160505092412 46 257 0.0 0.0 0.00 0.10 0.04 82 1002.6
20160505091412 46 257 0.0 0.0 0.00 0.10 0.04 82 1002.5
20160505090412 46 257 0.0 0.0 0.00 0.10 0.04 82 1002.6
20160505085412 47 257 0.0 0.0 0.00 0.10 0.04 82 1002.8
20160505084413 47 257 0.0 0.0 0.00 0.10 0.04 81 1002.6
20160505083412 46 257 0.0 0.0 0.00 0.10 0.04 81 1002.6
20160505082412 46 257 0.0 0.0 0.00 0.10 0.04 81 1002.6
20160505081412 46 257 0.0 0.0 0.00 0.10 0.04 81 1002.7
20160505075412 46 257 0.0 0.0 0.04 0.10 0.04 81 1002.5
20160505073412 47 257 2.0 3.0 0.04 0.10 0.04 81 1002.6
20160505072412 47 259 0.0 0.0 0.04 0.10 0.04 81 1002.5
20160505071413 47 259 0.0 0.0 0.04 0.10 0.04 81 1002.4
20160505070412 48 259 0.0 5.0 0.01 0.07 0.01 81 1002.7
20160505063413 48 249 0.0 0.0 0.00 0.06 0.00 80 1003.0
20160505062413 48 250 0.0 0.0 0.00 0.06 0.00 81 1003.1
20160505061412 48 256 1.0 3.0 0.00 0.06 0.00 80 1003.4
20160505060413 48 255 3.0 5.0 0.00 0.06 0.00 80 1003.5
20160505055413 48 257 2.0 6.0 0.00 0.06 0.00 80 1003.5
20160505054413 48 246 5.0 6.0 0.00 0.06 0.00 80 1003.6
20160505053413 47 247 4.0 6.0 0.00 0.06 0.00 79 1003.6
20160505052413 47 244 0.0 0.0 0.00 0.06 0.00 78 1003.9
20160505051413 47 244 0.0 0.0 0.00 0.06 0.00 78 1004.0
20160505045413 47 244 0.0 2.0 0.00 0.06 0.00 78 1003.9
20160505042413 48 97 1.0 5.0 0.00 0.06 0.00 77 1003.9
20160505041413 48 81 0.0 0.0 0.00 0.06 0.00 77 1004.0
20160505040413 48 81 0.0 0.0 0.00 0.06 0.00 77 1004.0
20160505035413 48 81 0.0 0.0 0.00 0.06 0.06 76 1004.0
20160505033413 48 81 0.0 0.0 0.05 0.06 0.06 76 1004.0
20160505032413 48 81 0.0 0.0 0.05 0.06 0.06 76 1003.9
20160505031413 48 81 0.0 0.0 0.06 0.06 0.06 75 1004.0
20160505030413 48 81 0.0 3.0 0.06 0.06 0.06 75 1004.2
20160505025413 49 97 5.0 7.0 0.06 0.06 0.06 76 1003.9
20160505024413 49 301 0.0 0.0 0.04 0.04 0.04 74 1004.4
20160505023413 49 301 0.0 0.0 0.01 0.01 0.01 73 1004.5
20160505022413 49 301 0.0 0.0 0.01 0.01 0.01 73 1004.1
20160505021413 50 301 0.0 5.0 0.00 0.00 0.00 73 1003.9
20160505020414 51 301 1.0 6.0 0.00 0.00 0.00 72 1003.9
20160505015414 52 317 3.0 23.0 0.00 0.00 0.00 72 1003.7
20160505014414 53 271 4.0 13.0 0.00 0.00 0.00 72 1003.3
20160505013413 53 204 0.0 0.0 0.00 0.00 0.00 71 1002.7
20160505012413 53 204 0.0 0.0 0.00 0.00 0.00 70 1002.6
20160505011413 53 204 0.0 0.0 0.00 0.00 0.00 70 1002.4
20160505010413 53 204 1.0 5.0 0.00 0.00 0.00 69 1002.3
20160505005413 53 198 2.0 3.0 0.00 0.00 0.00 69 1002.3
20160505004414 54 198 1.0 7.0 0.00 0.00 0.00 69 1002.4
20160505003414 54 202 2.0 5.0 0.00 0.00 0.00 67 1002.6
20160505002414 54 202 3.0 6.0 0.00 0.00 0.00 66 1002.7
20160505001414 55 217 3.0 7.0 0.00 0.00 0.00 65 1002.6
20160505000413 55 244 3.0 6.0 0.00 0.00 0.00 64 1002.7
20160504235414 55 226 3.0 6.0 0.00 0.00 0.00 62 1002.3
20160504234414 56 210 2.0 6.0 0.00 0.00 0.00 61 1002.3
20160504233414 57 238 6.0 9.0 0.00 0.00 0.00 60 1002.1
20160504232414 58 291 3.0 9.0 0.00 0.00 0.00 58 1002.1
20160504231413 59 17 0.0 9.0 0.00 0.00 0.00 56 1002.0
20160504225414 61 253 3.0 7.0 0.00 0.00 0.00 54 1001.5
20160504224413 61 259 3.0 8.0 0.00 0.00 0.00 53 1001.5
20160504223414 61 253 4.0 9.0 0.00 0.00 0.00 53 1001.4
20160504222414 62 269 5.0 9.0 0.00 0.00 0.00 53 1001.4
20160504221414 62 246 3.0 9.0 0.00 0.00 0.00 53 1001.4
20160504220414 62 240 2.0 8.0 0.00 0.00 0.00 53 1001.2
20160504215414 63 258 2.0 7.0 0.00 0.00 0.00 52 1001.0
20160504212414 64 266 5.0 8.0 0.00 0.00 0.00 52 1000.9
20160504211414 64 266 6.0 9.0 0.00 0.00 0.00 52 1001.0
20160504210414 64 229 3.0 10.0 0.00 0.00 0.00 52 1000.9
20160504205413 64 281 6.0 12.0 0.00 0.00 0.00 52 1001.0
20160504204415 65 252 8.0 12.0 0.00 0.00 0.00 52 1001.0
20160504203414 64 288 0.0 8.0 0.00 0.00 0.00 56 1001.0
20160504202414 64 216 1.0 8.0 0.00 0.00 0.00 55 1001.1
20160504201414 64 260 5.0 8.0 0.00 0.00 0.00 56 1001.3
20160504200415 63 262 5.0 10.0 0.00 0.00 0.00 56 1001.5
20160504195414 61 258 5.0 10.0 0.00 0.00 0.00 58 1001.6
20160504194414 61 224 6.0 9.0 0.00 0.00 0.00 56 1001.9
20160504193414 62 256 6.0 12.0 0.00 0.00 0.00 56 1002.0
20160504192415 62 263 4.0 12.0 0.00 0.00 0.00 56 1002.1
20160504191414 62 260 3.0 8.0 0.00 0.00 0.00 58 1002.3
20160504183415 61 255 5.0 10.0 0.00 0.00 0.00 62 1002.8
20160504182415 61 259 6.0 10.0 0.00 0.00 0.00 61 1003.0
20160504181415 62 264 6.0 12.0 0.00 0.00 0.00 62 1003.1
20160504180414 61 269 7.0 12.0 0.00 0.00 0.00 64 1003.1
20160504175415 61 211 5.0 8.0 0.00 0.00 0.00 64 1003.2
20160504172415 60 259 6.0 12.0 0.00 0.00 0.00 68 1003.8
20160504165415 59 257 5.0 10.0 0.00 0.00 0.00 70 1004.2
20160504164414 57 242 4.0 10.0 0.00 0.00 0.00 70 1004.7
20160504162414 58 262 5.0 9.0 0.00 0.00 0.00 71 1004.7
20160504161414 58 225 3.0 12.0 0.00 0.00 0.00 71 1004.7
20160504160415 58 218 5.0 12.0 0.00 0.00 0.00 70 1004.8
20160504155415 59 267 5.0 12.0 0.00 0.00 0.00 71 1004.8
20160504154415 58 269 5.0 12.0 0.00 0.01 0.00 71 1004.8
20160504153415 57 254 3.0 9.0 0.00 0.03 0.00 73 1004.8
20160504152415 57 255 5.0 10.0 0.00 0.03 0.00 73 1004.9
20160504151415 57 262 4.0 9.0 0.00 0.03 0.00 73 1005.1
20160504150416 56 265 2.0 8.0 0.00 0.03 0.00 74 1005.2
20160504145416 55 252 6.0 10.0 0.00 0.03 0.00 74 1005.2
20160504144415 55 258 5.0 10.0 0.00 0.03 0.00 74 1005.3
20160504143415 55 266 5.0 12.0 0.00 0.03 0.00 74 1005.3